Location: Campillo
(40.8621°N, 4.2488°W)
Time: 16:39:40
(UTC+00:00)

SJ-6B - Visible Passes

Search period start: 25 September 2021 00:00
Search period end: 05 October 2021 00:00
Orbit: 510 x 579 km, 97.6° (Epoch: 25 September)

Date Brightness Start Highest point End Pass type
(mag) Time Alt. Az. Time Alt. Az. Time Alt. Az.
25 Sep 3.1 19:47:40 48° E 19:48:00 49° ENE 19:51:58 10° N visible
25 Sep 5.9 21:23:16 13° W 21:23:16 13° W 21:24:49 10° WNW visible
26 Sep 3.3 19:41:51 41° E 19:42:06 42° ENE 19:45:58 10° N visible
26 Sep 5.7 21:17:28 15° W 21:17:28 15° W 21:19:19 10° NW visible
27 Sep 3.5 19:36:04 36° ENE 19:36:12 36° ENE 19:39:57 10° N visible
27 Sep 5.6 21:11:40 17° W 21:11:40 17° W 21:13:43 10° NW visible
28 Sep 3.7 19:30:16 31° ENE 19:30:19 31° ENE 19:33:55 10° N visible
28 Sep 5.5 21:05:53 19° WNW 21:05:53 19° WNW 21:08:02 10° NW visible
29 Sep 3.9 19:24:29 27° ENE 19:24:29 27° ENE 19:27:51 10° NNE visible
29 Sep 5.3 21:00:05 21° WNW 21:00:05 21° WNW 21:02:18 10° NW visible
30 Sep 4.1 19:18:41 23° ENE 19:18:41 23° ENE 19:21:46 10° NNE visible
30 Sep 5.2 20:54:18 23° WNW 20:54:18 23° WNW 20:56:32 10° NW visible
01 Oct 4.3 19:12:53 20° ENE 19:12:53 20° ENE 19:15:39 10° NNE visible
01 Oct 5.1 20:48:30 25° WNW 20:48:30 25° WNW 20:50:44 10° NNW visible
02 Oct 4.5 19:07:05 17° ENE 19:07:05 17° ENE 19:09:29 10° NNE visible
02 Oct 4.9 20:42:42 26° NW 20:42:42 26° NW 20:44:54 10° NNW visible
03 Oct 4.7 19:01:18 15° ENE 19:01:18 15° ENE 19:03:15 10° NNE visible
03 Oct 4.8 20:36:54 27° NW 20:36:54 27° NW 20:39:02 10° NNW visible
04 Oct 4.8 18:55:30 13° ENE 18:55:30 13° ENE 18:56:55 10° NE visible
04 Oct 4.8 20:31:07 27° NW 20:31:07 27° NW 20:33:09 10° NNW visible
